Watertown, SD

1:43 PM CDT on September 26, 2017 (GMT -0500)
Watertown Municipal

Weather History for KATY - March, 2013

Change the Weather History Date:

Saturday, March 2, 2013

  Actual Average Record
Temperature  
Mean Temperature 12 °F 23 °F  
Max Temperature 26 °F 33 °F 63 °F (1905)
Min Temperature -2 °F 14 °F -23 °F (1913)
Degree Days  
Heating Degree Days 53 42  
Month to date heating degree days 105 84  
Since 1 July heating degree days 6468 6495  
Cooling Degree Days 0 0  
Month to date cooling degree days 0 0  
Year to date cooling degree days 0 0  
Moisture  
Dew Point 4 °F    
Average Humidity 85    
Maximum Humidity 95    
Minimum Humidity 74    
Precipitation  
Precipitation 0.00 in 0.03 in 0.30 in (1965)
Month to date precipitation 0.00 0.06  
Year to date precipitation 1.22 1.14  
Snow  
Snow 0.00 in - - ()
Month to date snowfall 0.0  
Since 1 July snowfall 24.1  
Snow Depth 15.00 in    
Sea Level Pressure  
Sea Level Pressure 30.26 in    
Wind  
Wind Speed 8 mph (SSE)    
Max Wind Speed 17 mph    
Max Gust Speed 22 mph    
Visibility 4 miles    
Events Fog    
T = Trace of Precipitation, MM = Missing Value Source: NWS Daily Summary

Daily Weather History Graph

Daily Weather History Graph

Search for Another Location

Airport or City:

Trip Planner

Search our weather history database for the weather conditions in past years. The results will help you decide how hot, cold, wet, or windy it might be!

Date:

Astronomy

Mar. 02, 2013 Rise Set
Actual Time 7:04 AM CST 6:17 PM CST
Civil Twilight 6:34 AM CST 6:47 PM CST
Nautical Twilight 6:00 AM CST 7:21 PM CST
Astronomical Twilight 5:26 AM CST 7:55 PM CST
Moon No Moon Rise 9:17 AM CST (3/2)
Length of Visible Light 12h 12m
Length of Day
11h 13m
Waning Gibbous, 74% of the Moon is Illuminated
Mar 2
Waning Gibbous
Mar 4
Last Quarter
Mar 11
New
Mar 19
First Quarter
Mar 27
Full

Hourly Weather History & Observations

Time (CST) Temp. Windchill Dew Point Humidity Pressure Visibility Wind Dir Wind Speed Gust Speed Precip Events Conditions
12:00 AM 1.4 °F - -2.2 °F 85% 30.30 in 7.0 mi Calm Calm - N/A   Partly Cloudy
12:25 AM -2.2 °F - -4.0 °F 92% 30.30 in 1.8 mi Calm Calm - N/A   Mostly Cloudy
12:30 AM -2.2 °F - -4.0 °F 92% 30.30 in 0.8 mi Calm Calm - N/A   Mist
12:41 AM -2.2 °F - -4.0 °F 92% 30.30 in 1.5 mi Calm Calm - N/A   Overcast
12:44 AM -2.2 °F - -5.8 °F 85% 30.30 in 3.0 mi Calm Calm - N/A   Overcast
12:53 AM -0.9 °F - -5.1 °F 83% 30.42 in 7.0 mi Calm Calm - N/A   Overcast
1:05 AM -2.2 °F - -4.0 °F 92% 30.30 in 1.5 mi Calm Calm - N/A   Overcast
1:07 AM -2.2 °F - -4.0 °F 92% 30.30 in 0.8 mi Calm Calm - N/A   Overcast
1:18 AM -0.4 °F - -2.2 °F 92% 30.30 in 0.2 mi Calm Calm - N/A Fog Light Freezing Fog
1:28 AM -0.4 °F - -2.2 °F 92% 30.30 in 0.5 mi Calm Calm - N/A Fog Light Freezing Fog
1:39 AM -0.4 °F - -4.0 °F 85% 30.30 in 1.5 mi Calm Calm - N/A   Overcast
1:43 AM -0.4 °F - -2.2 °F 92% 30.30 in 3.0 mi Calm Calm - N/A   Overcast
1:53 AM -0.0 °F - -2.9 °F 88% 30.41 in 2.5 mi Calm Calm - N/A   Overcast
2:04 AM -0.4 °F - -4.0 °F 85% 30.28 in 1.5 mi Calm Calm - N/A   Overcast
2:10 AM -0.4 °F - -4.0 °F 85% 30.28 in 0.8 mi Calm Calm - N/A   Overcast
2:20 AM -0.4 °F - -4.0 °F 85% 30.28 in 0.2 mi Calm Calm - N/A Fog Light Freezing Fog
2:28 AM -0.4 °F - -2.2 °F 92% 30.28 in 1.0 mi Calm Calm - N/A   Overcast
2:32 AM -0.4 °F - -2.2 °F 92% 30.28 in 3.0 mi Calm Calm - N/A   Overcast
2:43 AM -0.4 °F - -2.2 °F 92% 30.28 in 2.5 mi Calm Calm - N/A   Overcast
2:58 AM 1.4 °F - -2.2 °F 85% 30.29 in 1.8 mi Calm Calm - N/A   Overcast
3:11 AM -0.4 °F - -2.2 °F 92% 30.28 in 0.2 mi Calm Calm - N/A Fog Light Freezing Fog
3:37 AM -2.2 °F - -5.8 °F 85% 30.27 in 0.8 mi Calm Calm - N/A   Overcast
3:53 AM -2.0 °F - -4.0 °F 91% 30.38 in 0.8 mi Calm Calm - N/A   Overcast
4:07 AM -2.2 °F - -4.0 °F 92% 30.26 in 1.5 mi Calm Calm - N/A   Overcast
4:13 AM -0.4 °F - -2.2 °F 92% 30.26 in 3.0 mi Calm Calm - N/A   Overcast
4:24 AM -0.4 °F - -2.2 °F 92% 30.26 in 1.8 mi Calm Calm - N/A   Overcast
4:33 AM -0.4 °F - -0.4 °F 100% 30.26 in 1.0 mi Calm Calm - N/A   Overcast
4:39 AM 1.4 °F - -0.4 °F 92% 30.26 in 2.5 mi Calm Calm - N/A   Overcast
4:53 AM 1.9 °F - -0.9 °F 88% 30.37 in 3.0 mi Calm Calm - N/A   Overcast
5:32 AM 1.4 °F - -0.4 °F 92% 30.26 in 2.0 mi Calm Calm - N/A   Overcast
5:40 AM 1.4 °F -6.2 °F -0.4 °F 92% 30.26 in 1.8 mi South 3.5 mph - N/A   Overcast
5:44 AM 1.4 °F - -0.4 °F 92% 30.26 in 3.0 mi Calm Calm - N/A   Overcast
6:48 AM 3.2 °F -7.8 °F 1.4 °F 92% 30.23 in 1.8 mi SSE 5.8 mph - N/A   Overcast
6:53 AM 3.9 °F -5.3 °F 1.9 °F 91% 30.35 in 1.0 mi SE 4.6 mph - N/A   Mist
7:10 AM 6.8 °F -0.1 °F 3.2 °F 85% 30.24 in 0.5 mi SE 3.5 mph - N/A Fog Light Freezing Fog
7:18 AM 6.8 °F -2.0 °F 3.2 °F 85% 30.22 in 1.5 mi SSE 4.6 mph - N/A   Mostly Cloudy
7:20 AM 6.8 °F -2.0 °F 3.2 °F 85% 30.22 in 4.0 mi SSE 4.6 mph - N/A   Mostly Cloudy
7:30 AM 6.8 °F -0.1 °F 3.2 °F 85% 30.23 in 9.0 mi SSE 3.5 mph - N/A   Mostly Cloudy
7:53 AM 7.0 °F -1.7 °F 3.9 °F 87% 30.34 in 7.0 mi SE 4.6 mph - N/A   Overcast
8:11 AM 6.8 °F -3.5 °F 5.0 °F 92% 30.22 in 2.5 mi South 5.8 mph - N/A   Overcast
8:18 AM 8.6 °F -1.3 °F 5.0 °F 85% 30.21 in 1.8 mi SSE 5.8 mph - N/A   Overcast
8:21 AM 8.6 °F -3.7 °F 6.8 °F 92% 30.21 in 3.0 mi SSE 8.1 mph - N/A   Overcast
8:28 AM 8.6 °F 0.1 °F 6.8 °F 92% 30.22 in 1.8 mi SSE 4.6 mph - N/A   Overcast
8:35 AM 10.4 °F -0.4 °F 8.6 °F 92% 30.22 in 1.0 mi South 6.9 mph - N/A   Overcast
8:40 AM 10.4 °F -1.5 °F 8.6 °F 92% 30.22 in 1.8 mi South 8.1 mph - N/A   Overcast
8:44 AM 10.4 °F 2.2 °F 8.6 °F 92% 30.21 in 3.0 mi SSE 4.6 mph - N/A   Overcast
8:53 AM 12.0 °F 0.5 °F 9.0 °F 88% 30.32 in 6.0 mi SSE 8.1 mph - N/A   Overcast
9:53 AM 16.0 °F 4.4 °F 12.9 °F 88% 30.32 in 10.0 mi South 9.2 mph - N/A   Overcast
10:53 AM 17.1 °F 3.6 °F 14.0 °F 88% 30.30 in 10.0 mi SSE 12.7 mph - N/A   Overcast
11:53 AM 19.0 °F 6.8 °F 15.1 °F 85% 30.30 in 10.0 mi SSE 11.5 mph - N/A   Overcast
12:53 PM 21.0 °F 8.1 °F 16.0 °F 81% 30.27 in 10.0 mi South 13.8 mph - N/A   Overcast
1:53 PM 23.0 °F 11.1 °F 17.1 °F 78% 30.23 in 10.0 mi South 12.7 mph - N/A   Overcast
2:53 PM 24.1 °F 11.5 °F 18.0 °F 77% 30.20 in 10.0 mi SSE 15.0 mph - N/A   Overcast
3:53 PM 25.0 °F 12.2 °F 17.1 °F 72% 30.19 in 10.0 mi SSE 16.1 mph - N/A   Overcast
4:53 PM 25.0 °F 13.1 °F 17.1 °F 72% 30.17 in 10.0 mi SSE 13.8 mph - N/A   Partly Cloudy
5:53 PM 24.1 °F 13.7 °F 18.0 °F 77% 30.17 in 10.0 mi South 10.4 mph - N/A   Overcast
7:53 PM 21.0 °F 10.6 °F 17.1 °F 85% 30.17 in 10.0 mi South 9.2 mph - N/A   Scattered Clouds
8:53 PM 21.0 °F 8.6 °F 17.1 °F 85% 30.13 in 10.0 mi SSE 12.7 mph - N/A   Clear
9:53 PM 21.0 °F 13.4 °F 17.1 °F 85% 30.12 in 10.0 mi SE 5.8 mph - N/A   Mostly Cloudy
10:53 PM 21.0 °F 10.6 °F 17.1 °F 85% 30.10 in 10.0 mi SSE 9.2 mph - N/A   Scattered Clouds
11:53 PM 19.9 °F 11.1 °F 16.0 °F 85% 30.08 in 10.0 mi SE 6.9 mph - N/A   Partly Cloudy